Regional Weather Roundup
Issued by NWS Green Bay, WI

Home | Current Version | Previous Version | Graphics & Text | Print | Product List | Glossary Off
Versions: 1 2 3 4 5 6 7 8 9 10 11 12 13 14 15 16 17 18 19 20 21 22 23 24 25 26 27 28 29 30 31 32 33 34 35 36 37 38 39 40 41 42 43 44 45 46 47 48 49 50

000
ASUS43 KGRB 261610
RWRGRB

NORTH-CENTRAL AND NORTHEAST WISCONSIN REGIONAL WEATHER ROUNDUP
NATIONAL WEATHER SERVICE GREEN BAY WI
1000 AM CST FRI DEC 26 2014

WIZ005-009-010>012-018-019-261700-
NORTH CENTRAL WISCONSIN

CITY           SKY/WX    TMP DP  RH WIND       PRES   REMARKS
IRONWOOD       CLOUDY    30  28  93 CALM      29.97R
MANITOWISH WTR LGT SNOW  29  29 100 N3        29.96R
ARBOR VITAE    LGT SNOW  32  30  93 N5        29.95R
EAGLE RIVER    CLOUDY    30  29  99 CALM      29.94S FOG
LAND O LAKES   LGT SNOW  29  28  98 CALM      29.96R
RHINELANDER    CLOUDY    30  28  92 NE5       29.95R FOG
PHILLIPS       LGT SNOW  29  28  95 N6        29.94S
ANTIGO         FOG       30  30 100 CALM      29.94S VSB 1/4
TOMAHAWK       CLOUDY    31  29  93 CALM      29.95R FOG
MERRILL        CLOUDY    31  30  99 CALM      29.95R FOG
$$

WIZ013-073-261700-
NORTHEAST WISCONSIN

CITY           SKY/WX    TMP DP  RH WIND       PRES   REMARKS
IRON MOUNTAIN  CLOUDY    32  29  88 N5        29.96R
MARINETTE      CLOUDY    34  32  93 CALM      29.98R
OCONTO         SUNNY     33  33 100 CALM      29.99S
$$

WIZ017-030-035>037-045-261700-
CENTRAL WISCONSIN

CITY           SKY/WX    TMP DP  RH WIND       PRES   REMARKS
MEDFORD        CLOUDY    30  29  96 NE6       29.93S FOG
WAUSAU         CLOUDY    30  30 100 CALM      29.94R FOG
MOSINEE        FOG       28  28 100 NE3       29.95R VSB 1/4
MARSHFIELD     MOSUNNY   32  30  92 NE3       29.94R FOG
WISC RAPIDS    SUNNY     36  32  85 S5        29.96R
STEVENS POINT  SUNNY     29  29 100 CALM      29.96R
WAUPACA        FOG       32  31  96 CALM      29.97R VSB 1/4
SHAWANO        FOG       31  30  95 CALM      29.98S VSB<1/4
CLINTONVILLE   FOG       30  30 100 NE3       29.97S VSB<1/4
$$

WIZ038-039-048-051-261700-
FOX VALLEY

CITY           SKY/WX    TMP DP  RH WIND       PRES   REMARKS
NWS GREEN BAY  SUNNY     37  35  92 S5        29.98R
APPLETON       MOSUNNY   36  36 100 VRB3      29.98R
OSHKOSH        SUNNY     39  34  82 S8        29.97R
FOND DU LAC    SUNNY     41  34  76 SW12      29.97R
$$

WIZ022-050-052-261700-
EAST CENTRAL WISCONSIN

CITY           SKY/WX    TMP DP  RH WIND       PRES   REMARKS
STURGEON BAY   MOSUNNY   37  34  87 SW5       30.00R
MANITOWOC      SUNNY     40  36  86 S5        29.99R
SHEBOYGAN      SUNNY     40  35  83 SW7       29.98R
$$

LMZ563-521-522-541>543-261700-
LAKESHORE

STATION/POSITION TIME  TEMP    WIND        PRES    VSBY  WAVE
                       AIR SEA DIR/SP/G                  HT/PER
                 (UTC) (F)     (DEG/KT/KT) (MB)    (MI)  (FT/S)
SHEBOYGAN LKSHOR 1600   41 39  210/ 10/ 12 1016.2R
KEWAUNEE LKSHORE 1600   39     210/  2/  5 1014.4R
ALGOMA MARINA    1600          250/  6/  7   N/A
NORTHPORT PIER   1600   36      CALM  /  1 1015.6R
SISTER BAY LKSHO 1500             CALM       N/A
STURGEON BAY CG  1600   40     220/  3     1015.8      6   1
CHAMBERS ISLAND  1600   34        CALM     1015.9R
MENOMINEE LKSHOR 1600   33     330/  2/  3 1016.1R
$$



USA.gov is the U.S. government's official web portal to all federal, state and local government web resources and services.